sat.trackr.live / text

‹ back to catalog

QIANFAN-176

NORAD 69393 · 2026-124M

PAYLOAD ACTIVE UNKNOWN

§ Identity

Operator
Country
PRC
Launch date
2026-06-04
Launch site
TAISC
Launch vehicle
Mass (kg)
RCS (m²)

External: N2YO · Heavens-Above · Gunter

§ Orbital elements

Epoch: 2026-09-20T05:03:05.185152Z

Period
106.59 min
Inclination
89.0056°
Eccentricity
0.0001836
Mean motion
13.51021391 rev/d
Perigee alt
1,067.1 km
Apogee alt
1,069.9 km
Semi-major
7,446.6 km
B*
1.4690e-4
RAAN
352.0017°
Arg perigee
102.9161°
Mean anomaly
257.2195°
Rev number
1,488

§ Raw data

QIANFAN-1761 69393U 26124M   26263.21047668  .00000107  00000+0  14690-3 0  99982 69393  89.0056 352.0017 0001836 102.9161 257.2195 13.51021391 14884

JSON: /api/v1/satellites/69393 · /tle

For live sub-satellite position, see the globe view (requires WebGL).

§ Visibility from observer

Set your observer location to see the next 7 days of passes ≥ 10°. The values pass through the URL so the page stays shareable.

No JS? Fill the form by hand. The geolocation button needs JavaScript.